CZ-4B DEB, 29539

Orbit data source: Space-Track

CZ-4B DEB, 29539 is space debris in SSO originally from a launch on Wed, 26 Apr 2006 UTC launched from the Taiyaun Space Center, China (TSC). Debris objects in space refer to the collection of defunct objects orbiting the Earth. Examples of debris include non-operational satellites, rocket bodies, and fragments generated from explosions, collisions, or faulty payload assembly.

Loading next visibility...
Identifier
29539, 2006-015F
Orbit
SSO
Country
Flag of CNCN / PRC
Related business
Manufacturer
SAST
Mission
Spacecraft
Bus & Motor
Unknown
Mass
Unknown
Launch date (UTC)
2006-04-26 (20 years ago)
Launch vehicle
Unknown
Launch site
Taiyaun Space Center, China (TSC)
Object type
Payload
Rocket body
Debris
Shape & HBR
Unknown shape, 0.1 m
Radar Cross Section
Small (<0.1 m²)

Expand to show TLE details & history
Last TLE update: 5 hours ago

TLE from 5 hours ago
0 CZ-4B DEB
1 29539U 06015F   26071.64929976  .00014703  00000-0  11367-2 0  9993
2 29539  97.7668 140.9461 0069379  23.7201 131.6418 14.99679811 55107
Epoch: 2026-03-12T15:34Z
TLE epoch observation values (Epoch: 2026-03-12T15:34:59.499Z)
Latitude
23.83693°
Longitude
-79.66195°
Altitude
603.102 km
Speed
7.543 km/s
True Right ascension
21h 37m 31s
True Declination
23° 42' 26"
Sunlit
Object was in daylight at epoch
Visualization orbit readout
Latitude
Unknown
Longitude
Unknown
Altitude
Unknown
Speed
Unknown
Apparent Right ascension
Unknown
Apparent Declination
Unknown
Sunlit
N/A
Visualization observer readout
Local Sidereal Time
01:01:19
Azimuth
Unknown
Elevation
Unknown
Doppler factor
Unknown
Orbital elements
Apogee altitude
613.063 km
Perigee altitude
516.723 km
Semi-major axis
6,943.03 km
Eccentricity
0.00694
Inclination
97.7668°
RAAN
140.9461°
Arg. of periapsis
23.7201°
True anomaly
132.23252°
Mean anomaly
131.6418°
Eccentric anomaly
131.9375°
Mean motion
3.75163 °/min
Orbital period
95.96 mins
BSTAR
0.0011367
Loading maneuver chart data...
Computing Atmospheric mass density...
Loading historical data...
Loading historical data...
Loading historical data...
Loading historical data...
Loading historical data...
Loading historical data...
Loading historical data...

Documentation

Showing up to 5 results
|